Regional Weather Roundup
Issued by NWS

Home | Current Version | Previous Version | Graphics & Text | Print | Product List | Glossary Off
Versions: 1 2 3 4 5 6 7 8 9 10 11 12 13 14 15 16 17 18 19 20 21 22 23 24 25 26 27 28 29 30 31 32 33 34 35 36 37 38 39 40 41 42 43 44 45 46 47 48 49 50

520
ASUS43 KDMX 221406
RWRIA

WEATHER ROUNDUP FOR IOWA
NATIONAL WEATHER SERVICE DES MOINES IA
900 AM CDT SUN OCT 22 2017

NOTE: "FAIR" INDICATES FEW OR NO CLOUDS BELOW 12,000 FEET WITH NO
SIGNIFICANT WEATHER AND/OR OBSTRUCTIONS TO VISIBILITY.

* - THESE STATIONS ARE NOT NWS STATIONS...THUS NOT UNDER NWS
QUALITY CONTROL.  THEY ALSO DO NOT REPORT WEATHER SUCH
AS PRECIPITATION OR FOG.

IAZ001>003-012>014-020>022-031>034-043>046-221500-
   NORTHWEST IOWA

CITY           SKY/WX    TMP DP  RH WIND       PRES   REMARKS
CHEROKEE *     SUNNY     38  38 100 S5        30.08R WCI  35
DENISON *      SUNNY     45  41  87 CALM      30.10R
LE MARS *      SUNNY     39  37  93 CALM      30.08R
ORANGE CITY *  SUNNY     39  39 100 W5        30.07R
SHELDON *      SUNNY     37  36  93 CALM      30.05R
SIOUX CITY     SUNNY     41  41 100 CALM      30.10R
SPENCER        CLOUDY    41  38  89 W8        30.05R
STORM LAKE *   SUNNY     43  37  81 W6        30.07R
$$

IAZ055>058-069>071-079>083-090>094-221500-
   SOUTHWEST IOWA

CITY           SKY/WX    TMP DP  RH WIND       PRES   REMARKS
ATLANTIC *     SUNNY     48  41  76 CALM      30.09R
AUDUBON *      SUNNY     46  41  81 CALM      30.09R
CLARINDA *     SUNNY     50  43  76 VRB3      30.12R
COUNCIL BLFS * SUNNY     46  43  87 W5        30.10R
CRESTON *      CLOUDY    45  43  93 NW7       30.09R
HARLAN  *      SUNNY     46  43  87 CALM      30.12S
LAMONI         CLOUDY    50  45  83 NW9       30.05R
RED OAK *      SUNNY     48  43  81 CALM      30.10R
SHENANDOAH *   SUNNY     48  43  81 SW3       30.12R
$$

IAZ047>049-059>061-072>074-084-221500-
   CENTRAL IOWA

CITY           SKY/WX    TMP DP  RH WIND       PRES   REMARKS
AMES           CLOUDY    50  44  80 NW8       30.05R
ANKENY *       CLOUDY    50  45  81 NW8       30.06R
BOONE *        CLOUDY    48  43  81 NW12      30.04R
CHARITON *     CLOUDY    50  46  87 NW7       30.04S
DES MOINES     CLOUDY    51  44  77 NW8       30.05R
GRINNELL*      CLOUDY    49  46  89 W9        30.05R
KNOXVILLE *    CLOUDY    50  46  87 NW6       30.02S
MARSHALLTOWN   CLOUDY    49  47  93 W7        30.03R
NEWTON *       CLOUDY    50  46  87 NW8       30.03R
PELLA *        CLOUDY    50  47  90 W3        30.05R
PERRY *          N/A     47  43  85 W7        30.07R
$$

IAZ004>006-015-016-023>025-035-036-221500-
   NORTH CENTRAL IOWA

CITY           SKY/WX    TMP DP  RH WIND       PRES   REMARKS
ALGONA *       CLOUDY    45  43  93 W9        30.04R
CLARION *      CLOUDY    48  45  87 W10       30.04R
ESTHERVILLE    SUNNY     42  40  92 W8        30.03R
FORT DODGE *   PTSUNNY   46  40  79 CALM      30.07R
MASON CITY     CLOUDY    47  42  83 W10       30.03R
FOREST CITY *    N/A     46  43  87 W5        30.02R
WEBSTER CITY * CLOUDY    48  41  76 W10       30.03R
IOWA FALLS *     N/A     49  45  85 W7        30.04R
$$

IAZ007>011-017>019-026>030-037>042-050>054-066-221500-
   NORTHEAST IOWA

CITY           SKY/WX    TMP DP  RH WIND       PRES   REMARKS
CEDAR RAPIDS   CLOUDY    51  49  92 NW10      29.99R
CHARLES CITY * CLOUDY    50  48  93 NW7       30.01R
CLINTON *      LGT RAIN  54  52  93 N10       29.95R
DECORAH *      CLOUDY    48  46  93 CALM      29.97R
DUBUQUE        LGT RAIN  51  48  89 N12       29.98R
MONTICELLO *   CLOUDY    52  48  87 NW8       29.98R
OELWEIN *      CLOUDY    50  50 100 NW9       30.00R
WATERLOO       CLOUDY    49  46  90 W5        30.00R
$$

IAZ064-065-067-068-078-221500-
   EAST CENTRAL IOWA

CITY           SKY/WX    TMP DP  RH WIND       PRES   REMARKS
DAVENPORT      LGT RAIN  53  51  93 NW9       29.97R
IOWA CITY      LGT RAIN  52  48  86 NW9       30.01R
MUSCATINE *    CLOUDY    54  50  87 NW10      29.98R
QUAD CITIES    LGT RAIN  56  52  86 NW7       29.95S
$$

IAZ062-063-075>077-085>089-095>099-221500-
   SOUTHEAST IOWA

CITY           SKY/WX    TMP DP  RH WIND       PRES   REMARKS
BURLINGTON     CLOUDY    53  52  96 NW8       29.98R
FAIRFIELD *    CLOUDY    50  48  93 NW10      30.01R
FORT MADISON * DRIZZLE   52  52 100 NW8       30.00R
KEOKUK *       CLOUDY    52  50  93 VRB7      29.99R
OSKALOOSA *    CLOUDY    49  48  95 NW9       30.04R
OTTUMWA        CLOUDY    51  50  96 NW8       30.03R
WASHINGTON *   LGT RAIN  52  50  93 NW12      30.02R
$$

ABBREVIATIONS USED IN REMARKS
   TC - TEMPERATURES IN CELSIUS
  WCI - WIND CHILL INDEX
   HX - HEAT INDEX
  VSB - VISIBILITY
$$





USA.gov is the U.S. government's official web portal to all federal, state and local government web resources and services.